Weather in Alasehir

Turkey     38°21′16″N   28°31′02″E
temp.,
°C
wind,
m/s
gust,
m/s
humid.,
%
clouds,
%
prec.,
mm/h
press.,
hPa
HPBL,
m
28 october, thu
thu2800:00+10n11510 0.0 102110
03:00+8n11580 0.0 102110
06:00+7n11620 0.0 102111
09:00+10ne12500 0.0 102198
12:00+15ne32350 0.0 1020536
15:00+18n22280 0.0 1018948
18:00+15nw22340 0.0 101811
21:00+11nnw22430 0.0 101912
29 october, fri
fri2900:00+9nnw11710 0.0 102011
03:00+8n11740 0.0 101910
06:00+7n11770 0.0 101910
09:00+10nne22650 0.0 1019110
12:00+15ne32420 0.0 1018568
15:00+17nne22330 0.0 1016909
18:00+14n11410 0.0 101611
21:00+11nnw22510 0.0 101710
30 october, sat
sat3000:00+10n11630 0.0 101810
03:00+9nne01640 0.0 101810
06:00+8nne01660 0.0 101810
09:00+11ene11540 0.0 101974
12:00+16ne21370 0.0 1018652
15:00+19nne22290 0.0 10161253
18:00+14nnw22410 0.0 101714
21:00+12wnw11485 0.0 101810
31 october, sun
sun3100:00+11wsw11525 0.0 101910
03:00+10wnw11565 0.0 101910
06:00+9ese006043 0.0 101910
09:00+11se11525 0.0 101973
12:00+16e11428 0.0 1018757
15:00+17wnw014699 0.4 1016308
18:00+15nnw225888 0.7 101739
21:00+11wsw228151 2.4 101817
1 november, mon
mon100:00+12sw228291 1.1 101864
03:00+11w11847 1.4 101814
06:00+10wsw11897 0.3 101810
09:00+11wsw11814 0.4 1018105
12:00+15sw24533 0.1 10171466
15:00+17wsw344311 0.1 10161631
18:00+13wsw22542 0.0 101617
21:00+11wsw22642 0.0 101713